EZY13KM LEPA-EGKK

Flight info

Callsign EZY13KM
Flight time 1h 57m
Altitude 38000
Route DRAGO DCT PAPOS DCT UMURE DCT XIKEN DCT KARES DCT ARBEK DCT REBUL DCT USKAR DCT MOPAS DCT GIROM DCT GONUP DCT MANAK DCT TIRAV DCT DIXAD DCT NTS DCT BAKUL DCT REN DCT UPALO DCT REVTU DCT ODREP UP88 VASUX
Aircraft A319/M-SDE2E3FGIJ1RWXYZ/LB1

Departure

Time 2026-05-07 20:56
Airport Palma de Mallorca Airport (LEPA)

Arrival

Time 2026-05-07 22:53
Airport London Gatwick Airport (EGKK)
Time Latitude Longitude Altitude Speed Heading
2026-05-07 20:06 39.55156 2.73011 39 ft 0 kts 194°
2026-05-07 20:42 39.55162 2.73013 38 ft 4 kts 194°
2026-05-07 20:42 39.55188 2.73021 37 ft 4 kts 194°
2026-05-07 20:42 39.55215 2.73030 35 ft 4 kts 194°
2026-05-07 20:42 39.55235 2.73037 37 ft 4 kts 202°
2026-05-07 20:43 39.55257 2.73055 36 ft 4 kts 229°
2026-05-07 20:43 39.55270 2.73078 37 ft 4 kts 237°
2026-05-07 20:43 39.55285 2.73108 36 ft 4 kts 239°
2026-05-07 20:43 39.55290 2.73121 38 ft 0 kts 239°
2026-05-07 20:47 39.55289 2.73117 37 ft 2 kts 239°
2026-05-07 20:47 39.55272 2.73076 37 ft 7 kts 249°
2026-05-07 20:47 39.55287 2.73040 38 ft 0 kts 325°
2026-05-07 20:47 39.55288 2.73038 38 ft 1 kts 326°
2026-05-07 20:48 39.55295 2.73033 38 ft 1 kts 328°
2026-05-07 20:48 39.55298 2.73030 38 ft 0 kts 329°
2026-05-07 20:49 39.55319 2.73014 37 ft 7 kts 329°
2026-05-07 20:49 39.55383 2.72973 38 ft 12 kts 354°
2026-05-07 20:49 39.55441 2.73051 38 ft 14 kts 59°
2026-05-07 20:49 39.55492 2.73158 38 ft 14 kts 58°
2026-05-07 20:50 39.55547 2.73273 38 ft 16 kts 58°
2026-05-07 20:50 39.55609 2.73402 37 ft 17 kts 58°
2026-05-07 20:50 39.55623 2.73502 37 ft 11 kts 149°
2026-05-07 20:50 39.55538 2.73565 38 ft 17 kts 149°
2026-05-07 20:51 39.55430 2.73649 38 ft 19 kts 148°
2026-05-07 20:51 39.55309 2.73745 36 ft 21 kts 148°
2026-05-07 20:51 39.55180 2.73848 38 ft 23 kts 148°
2026-05-07 20:51 39.55062 2.73940 38 ft 10 kts 148°
2026-05-07 20:52 39.55016 2.73977 38 ft 8 kts 148°
2026-05-07 20:52 39.54959 2.74023 38 ft 12 kts 148°
2026-05-07 20:52 39.54860 2.74100 38 ft 20 kts 149°
2026-05-07 20:52 39.54778 2.74104 38 ft 13 kts 241°
2026-05-07 20:53 39.54721 2.73979 38 ft 19 kts 239°
2026-05-07 20:53 39.54644 2.73816 38 ft 22 kts 237°
2026-05-07 20:53 39.54558 2.73638 38 ft 24 kts 238°
2026-05-07 20:53 39.54467 2.73447 38 ft 26 kts 238°
2026-05-07 20:54 39.54371 2.73244 38 ft 27 kts 238°
2026-05-07 20:54 39.54299 2.73154 38 ft 9 kts 137°
2026-05-07 20:54 39.54269 2.73230 38 ft 10 kts 97°
2026-05-07 20:54 39.54268 2.73331 38 ft 13 kts 90°
2026-05-07 20:55 39.54267 2.73458 38 ft 10 kts 90°
2026-05-07 20:55 39.54300 2.73538 37 ft 11 kts 59°
2026-05-07 20:55 39.54423 2.73796 38 ft 70 kts 58°
2026-05-07 20:55 39.54801 2.74595 39 ft 135 kts 58°
2026-05-07 20:56 39.55346 2.75727 462 ft 149 kts 58°
2026-05-07 20:56 39.55890 2.76888 1075 ft 152 kts 58°
2026-05-07 20:56 39.56444 2.78082 1724 ft 157 kts 57°
2026-05-07 20:56 39.57036 2.79321 2234 ft 170 kts 58°
2026-05-07 20:57 39.57689 2.80705 2614 ft 192 kts 59°
2026-05-07 20:57 39.58416 2.82292 3017 ft 215 kts 60°
2026-05-07 20:57 39.59171 2.83971 3851 ft 216 kts 59°
2026-05-07 20:57 39.59933 2.85662 4767 ft 218 kts 59°
2026-05-07 20:58 39.60705 2.87360 5639 ft 220 kts 58°
2026-05-07 20:58 39.61485 2.89084 6477 ft 223 kts 59°
2026-05-07 20:58 39.62507 2.90591 7237 ft 228 kts 32°
2026-05-07 20:58 39.64036 2.91121 8026 ft 234 kts 358°
2026-05-07 20:59 39.65567 2.90399 8777 ft 242 kts 323°
2026-05-07 20:59 39.66568 2.88613 9504 ft 250 kts 293°
2026-05-07 20:59 39.67182 2.86508 10333 ft 251 kts 289°
2026-05-07 20:59 39.67697 2.84311 11013 ft 257 kts 285°
2026-05-07 21:00 39.68087 2.82077 11801 ft 257 kts 281°
2026-05-07 21:00 39.68362 2.79778 12579 ft 261 kts 276°
2026-05-07 21:00 39.68512 2.77405 13263 ft 267 kts 272°
2026-05-07 21:00 39.68736 2.74992 13961 ft 272 kts 281°
2026-05-07 21:01 39.69274 2.72527 14234 ft 296 kts 291°
2026-05-07 21:01 39.70127 2.69985 14435 ft 319 kts 294°
2026-05-07 21:01 39.71065 2.67260 14603 ft 342 kts 294°
2026-05-07 21:01 39.72056 2.64366 15016 ft 355 kts 294°
2026-05-07 21:02 39.73060 2.61415 15650 ft 359 kts 293°
2026-05-07 21:02 39.74075 2.58425 16282 ft 364 kts 292°
2026-05-07 21:02 39.75099 2.55398 16942 ft 368 kts 292°
2026-05-07 21:02 39.76132 2.52345 17656 ft 370 kts 292°
2026-05-07 21:03 39.77172 2.49273 18327 ft 373 kts 292°
2026-05-07 21:03 39.78219 2.46168 18916 ft 375 kts 292°
2026-05-07 21:03 39.79265 2.43060 19590 ft 376 kts 292°
2026-05-07 21:03 39.80315 2.39928 20156 ft 379 kts 291°
2026-05-07 21:04 39.81373 2.36764 20724 ft 383 kts 291°
2026-05-07 21:04 39.82443 2.33570 21269 ft 387 kts 291°
2026-05-07 21:04 39.83520 2.30342 21823 ft 391 kts 291°
2026-05-07 21:04 39.84594 2.27068 22420 ft 393 kts 290°
2026-05-07 21:05 39.85655 2.23784 23020 ft 396 kts 290°
2026-05-07 21:05 39.86719 2.20467 23563 ft 399 kts 289°
2026-05-07 21:05 39.87778 2.17161 24001 ft 402 kts 289°
2026-05-07 21:05 39.88858 2.13789 24448 ft 405 kts 289°
2026-05-07 21:06 39.89948 2.10390 24900 ft 408 kts 289°
2026-05-07 21:06 39.91046 2.06975 25341 ft 410 kts 290°
2026-05-07 21:06 39.92154 2.03532 25775 ft 413 kts 290°
2026-05-07 21:06 39.93267 2.00074 26206 ft 415 kts 289°
2026-05-07 21:07 39.94385 1.96591 26634 ft 418 kts 289°
2026-05-07 21:07 39.95506 1.93088 27058 ft 420 kts 289°
2026-05-07 21:07 39.96631 1.89564 27486 ft 422 kts 289°
2026-05-07 21:07 39.97757 1.86033 28006 ft 422 kts 289°
2026-05-07 21:08 39.98956 1.82530 28470 ft 426 kts 295°
2026-05-07 21:08 40.00623 1.79308 28887 ft 433 kts 307°
2026-05-07 21:08 40.02782 1.76531 29264 ft 441 kts 318°
2026-05-07 21:08 40.05376 1.74322 29540 ft 451 kts 330°
2026-05-07 21:09 40.08291 1.72729 29883 ft 456 kts 336°
2026-05-07 21:09 40.11261 1.71219 30224 ft 459 kts 336°
2026-05-07 21:09 40.14242 1.69695 30581 ft 460 kts 335°
2026-05-07 21:09 40.17217 1.68166 30965 ft 459 kts 335°
2026-05-07 21:10 40.20193 1.66632 31365 ft 459 kts 335°
2026-05-07 21:10 40.23158 1.65101 31830 ft 456 kts 335°
2026-05-07 21:10 40.26101 1.63580 32355 ft 454 kts 335°
2026-05-07 21:10 40.29035 1.62062 32748 ft 453 kts 334°
2026-05-07 21:11 40.31964 1.60549 33246 ft 450 kts 334°
2026-05-07 21:11 40.34830 1.59072 33812 ft 446 kts 334°
2026-05-07 21:11 40.40547 1.56119 34756 ft 438 kts 333°
2026-05-07 21:12 40.43377 1.54656 35128 ft 436 kts 333°
2026-05-07 21:12 40.46200 1.53195 35469 ft 435 kts 333°
2026-05-07 21:12 40.49012 1.51737 35797 ft 434 kts 333°
2026-05-07 21:12 40.51817 1.50279 36118 ft 433 kts 333°
2026-05-07 21:13 40.54613 1.48825 36425 ft 432 kts 333°
2026-05-07 21:13 40.57404 1.47372 36730 ft 431 kts 333°
2026-05-07 21:13 40.60187 1.45919 37017 ft 430 kts 333°
2026-05-07 21:13 40.62962 1.44469 37301 ft 429 kts 332°
2026-05-07 21:14 40.65733 1.43023 37580 ft 428 kts 332°
2026-05-07 21:14 40.67565 1.42069 37760 ft 427 kts 332°
2026-05-07 21:14 40.71260 1.40144 37982 ft 426 kts 332°
2026-05-07 21:14 40.73085 1.39191 38005 ft 425 kts 332°
2026-05-07 21:15 40.78565 1.36313 38006 ft 423 kts 332°
2026-05-07 21:15 40.84039 1.33439 38005 ft 423 kts 332°
2026-05-07 21:16 40.89512 1.30565 38010 ft 423 kts 332°
2026-05-07 21:16 40.94997 1.27669 38015 ft 426 kts 332°
2026-05-07 21:17 41.00509 1.24763 38028 ft 426 kts 332°
2026-05-07 21:17 41.06004 1.21869 38033 ft 426 kts 332°
2026-05-07 21:18 41.11531 1.18943 38037 ft 427 kts 332°
2026-05-07 21:18 41.17303 1.16872 38039 ft 439 kts 349°
2026-05-07 21:19 41.23406 1.16254 38030 ft 440 kts 350°
2026-05-07 21:19 41.29522 1.15616 38026 ft 441 kts 349°
2026-05-07 21:20 41.35634 1.14955 38045 ft 441 kts 350°
2026-05-07 21:20 41.41719 1.14301 38041 ft 442 kts 350°
2026-05-07 21:21 41.47852 1.13660 38036 ft 442 kts 350°
2026-05-07 21:21 41.53991 1.13020 38034 ft 442 kts 350°
2026-05-07 21:22 41.60131 1.12377 38038 ft 443 kts 350°
2026-05-07 21:22 41.66277 1.11725 38026 ft 443 kts 350°
2026-05-07 21:23 41.72420 1.11066 38012 ft 443 kts 350°
2026-05-07 21:23 41.78577 1.10411 38021 ft 444 kts 351°
2026-05-07 21:24 41.84739 1.09752 38004 ft 444 kts 351°
2026-05-07 21:24 41.90905 1.09093 37996 ft 445 kts 351°
2026-05-07 21:25 41.97074 1.08437 37989 ft 445 kts 351°
2026-05-07 21:25 42.03254 1.07777 37996 ft 445 kts 351°
2026-05-07 21:26 42.09436 1.07112 38000 ft 446 kts 351°
2026-05-07 21:26 42.15625 1.06448 38010 ft 446 kts 351°
2026-05-07 21:27 42.21800 1.05782 38050 ft 446 kts 351°
2026-05-07 21:27 42.27997 1.05119 38043 ft 447 kts 351°
2026-05-07 21:28 42.34204 1.04456 38040 ft 447 kts 351°
2026-05-07 21:28 42.40365 1.03783 38054 ft 448 kts 351°
2026-05-07 21:29 42.46584 1.03111 38036 ft 448 kts 351°
2026-05-07 21:29 42.52807 1.02427 38030 ft 449 kts 351°
2026-05-07 21:30 42.59032 1.01751 38029 ft 449 kts 351°
2026-05-07 21:30 42.65259 1.01073 38034 ft 450 kts 351°
2026-05-07 21:31 42.71497 1.00382 38022 ft 450 kts 351°
2026-05-07 21:31 42.77714 0.99577 38007 ft 446 kts 345°
2026-05-07 21:32 42.83719 0.97584 37997 ft 444 kts 341°
2026-05-07 21:32 42.89716 0.95520 37998 ft 445 kts 341°
2026-05-07 21:33 42.95673 0.93464 38007 ft 445 kts 341°
2026-05-07 21:33 43.01669 0.91384 38014 ft 444 kts 341°
2026-05-07 21:34 43.07664 0.89301 38002 ft 444 kts 341°
2026-05-07 21:34 43.13660 0.87226 37995 ft 445 kts 341°
2026-05-07 21:35 43.19657 0.85148 37988 ft 444 kts 341°
2026-05-07 21:35 43.25652 0.83058 37992 ft 445 kts 341°
2026-05-07 21:36 43.31649 0.80960 37983 ft 445 kts 341°
2026-05-07 21:36 43.37649 0.78855 37981 ft 445 kts 341°
2026-05-07 21:37 43.43649 0.76742 37992 ft 445 kts 341°
2026-05-07 21:37 43.49449 0.73922 37990 ft 440 kts 333°
2026-05-07 21:38 43.55083 0.70610 37980 ft 440 kts 333°
2026-05-07 21:38 43.60722 0.67298 37978 ft 440 kts 333°
2026-05-07 21:39 43.66364 0.63966 37986 ft 441 kts 333°
2026-05-07 21:39 43.72001 0.60624 37977 ft 441 kts 333°
2026-05-07 21:40 43.77641 0.57274 37970 ft 441 kts 333°
2026-05-07 21:40 43.83281 0.53922 37984 ft 441 kts 333°
2026-05-07 21:41 43.88925 0.50558 37983 ft 442 kts 332°
2026-05-07 21:41 43.94569 0.47188 37982 ft 442 kts 333°
2026-05-07 21:42 44.00216 0.43816 37984 ft 442 kts 333°
2026-05-07 21:42 44.05829 0.40457 37991 ft 442 kts 333°
2026-05-07 21:43 44.11468 0.37068 37997 ft 441 kts 333°
2026-05-07 21:43 44.17108 0.33689 37992 ft 441 kts 333°
2026-05-07 21:44 44.22742 0.30305 37998 ft 440 kts 333°
2026-05-07 21:44 44.28364 0.26906 37988 ft 440 kts 333°
2026-05-07 21:45 44.33976 0.23488 37981 ft 440 kts 333°
2026-05-07 21:45 44.39584 0.20077 37979 ft 440 kts 333°
2026-05-07 21:46 44.45199 0.16679 37982 ft 440 kts 333°
2026-05-07 21:46 44.50808 0.13269 37981 ft 439 kts 333°
2026-05-07 21:47 44.56412 0.09845 37978 ft 439 kts 333°
2026-05-07 21:47 44.62013 0.06413 37980 ft 439 kts 333°
2026-05-07 21:48 44.67616 0.02973 37976 ft 439 kts 333°
2026-05-07 21:48 44.73225 -0.00463 37978 ft 439 kts 333°
2026-05-07 21:49 44.78793 -0.03885 37978 ft 440 kts 333°
2026-05-07 21:49 44.84395 -0.07344 37978 ft 440 kts 333°
2026-05-07 21:50 44.90001 -0.10807 37975 ft 440 kts 333°
2026-05-07 21:50 44.95608 -0.14278 37974 ft 440 kts 333°
2026-05-07 21:51 45.01214 -0.17750 37995 ft 440 kts 333°
2026-05-07 21:51 45.06779 -0.21213 37991 ft 440 kts 333°
2026-05-07 21:52 45.12381 -0.24716 37986 ft 440 kts 333°
2026-05-07 21:52 45.17973 -0.28225 37986 ft 440 kts 333°
2026-05-07 21:53 45.23577 -0.31724 38002 ft 440 kts 333°
2026-05-07 21:53 45.29176 -0.35230 37996 ft 440 kts 333°
2026-05-07 21:54 45.34770 -0.38753 37993 ft 440 kts 333°
2026-05-07 21:54 45.40365 -0.42277 37996 ft 440 kts 333°
2026-05-07 21:55 45.45955 -0.45821 37992 ft 440 kts 333°
2026-05-07 21:55 45.51547 -0.49361 37990 ft 440 kts 333°
2026-05-07 21:56 45.57139 -0.52902 37980 ft 440 kts 333°
2026-05-07 21:56 45.62734 -0.56454 37993 ft 440 kts 333°
2026-05-07 21:57 45.68334 -0.60021 37990 ft 440 kts 333°
2026-05-07 21:57 45.73929 -0.63599 37986 ft 441 kts 333°
2026-05-07 21:58 45.79526 -0.67187 37992 ft 441 kts 333°
2026-05-07 21:58 45.85127 -0.70774 37993 ft 441 kts 333°
2026-05-07 21:59 45.90734 -0.74372 37994 ft 441 kts 333°
2026-05-07 21:59 45.96300 -0.77959 37989 ft 441 kts 333°
2026-05-07 22:00 46.01900 -0.81580 38006 ft 441 kts 333°
2026-05-07 22:00 46.07503 -0.85195 37998 ft 441 kts 333°
2026-05-07 22:01 46.13093 -0.88819 38002 ft 440 kts 333°
2026-05-07 22:01 46.18675 -0.92455 38010 ft 440 kts 333°
2026-05-07 22:02 46.23828 -0.97045 38020 ft 434 kts 318°
2026-05-07 22:02 46.27738 -1.01583 38017 ft 434 kts 318°
2026-05-07 22:03 46.32447 -1.07034 38014 ft 434 kts 318°
2026-05-07 22:03 46.37155 -1.12495 38018 ft 434 kts 318°
2026-05-07 22:04 46.41861 -1.17973 38010 ft 434 kts 318°
2026-05-07 22:04 46.46559 -1.23454 38020 ft 433 kts 318°
2026-05-07 22:05 46.51252 -1.28943 38020 ft 433 kts 318°
2026-05-07 22:05 46.55941 -1.34435 38021 ft 433 kts 318°
2026-05-07 22:06 46.60775 -1.39652 38028 ft 436 kts 328°
2026-05-07 22:06 46.66227 -1.43562 38021 ft 437 kts 331°
2026-05-07 22:07 46.71698 -1.47439 38016 ft 437 kts 331°
2026-05-07 22:07 46.77131 -1.51307 38016 ft 437 kts 331°
2026-05-07 22:08 46.82603 -1.55198 38015 ft 437 kts 331°
2026-05-07 22:08 46.88323 -1.58262 38011 ft 442 kts 347°
2026-05-07 22:09 46.94478 -1.59079 38008 ft 445 kts 353°
2026-05-07 22:09 47.00655 -1.59707 38012 ft 445 kts 353°
2026-05-07 22:10 47.06837 -1.60348 38011 ft 445 kts 353°
2026-05-07 22:10 47.13020 -1.60991 38013 ft 445 kts 353°
2026-05-07 22:11 47.19202 -1.61647 38031 ft 445 kts 353°
2026-05-07 22:11 47.25370 -1.62481 38021 ft 445 kts 352°
2026-05-07 22:12 47.31532 -1.63376 38020 ft 445 kts 352°
2026-05-07 22:12 47.37693 -1.64236 38030 ft 445 kts 352°
2026-05-07 22:13 47.43867 -1.65094 38023 ft 445 kts 352°
2026-05-07 22:13 47.50030 -1.65976 38023 ft 445 kts 352°
2026-05-07 22:14 47.56196 -1.66865 38027 ft 445 kts 352°
2026-05-07 22:14 47.62368 -1.67752 38037 ft 445 kts 352°
2026-05-07 22:15 47.68535 -1.68622 38032 ft 445 kts 352°
2026-05-07 22:15 47.74699 -1.69497 38030 ft 445 kts 352°
2026-05-07 22:16 47.80865 -1.70395 38050 ft 445 kts 352°
2026-05-07 22:16 47.87030 -1.71296 38048 ft 445 kts 352°
2026-05-07 22:17 47.93193 -1.72186 38047 ft 445 kts 352°
2026-05-07 22:17 47.99358 -1.73070 38046 ft 445 kts 352°
2026-05-07 22:18 48.08579 -1.74184 38047 ft 446 kts 357°
2026-05-07 22:19 48.14791 -1.74247 38045 ft 446 kts 357°
2026-05-07 22:19 48.21005 -1.74326 38044 ft 446 kts 357°
2026-05-07 22:20 48.27212 -1.74415 38051 ft 446 kts 357°
2026-05-07 22:20 48.33428 -1.74498 38046 ft 446 kts 357°
2026-05-07 22:21 48.39637 -1.74571 38046 ft 446 kts 357°
2026-05-07 22:21 48.45860 -1.74648 38057 ft 446 kts 357°
2026-05-07 22:22 48.52072 -1.74713 38052 ft 446 kts 357°
2026-05-07 22:22 48.58284 -1.74774 38049 ft 446 kts 357°
2026-05-07 22:23 48.64459 -1.74847 38061 ft 446 kts 357°
2026-05-07 22:23 48.70713 -1.74937 38053 ft 446 kts 357°
2026-05-07 22:24 48.76885 -1.75022 38049 ft 447 kts 357°
2026-05-07 22:24 48.83102 -1.75098 38049 ft 447 kts 357°
2026-05-07 22:25 48.89316 -1.75180 38048 ft 447 kts 357°
2026-05-07 22:25 48.95538 -1.75151 38047 ft 448 kts 359°
2026-05-07 22:26 49.01768 -1.74853 38046 ft 448 kts 360°
2026-05-07 22:26 49.07999 -1.74542 38053 ft 448 kts 359°
2026-05-07 22:27 49.14240 -1.74299 38052 ft 448 kts 359°
2026-05-07 22:27 49.20477 -1.74069 38052 ft 448 kts 359°
2026-05-07 22:28 49.26718 -1.73842 37841 ft 449 kts 359°
2026-05-07 22:28 49.29837 -1.73725 37583 ft 448 kts 359°
2026-05-07 22:28 49.32951 -1.73604 37315 ft 447 kts 359°
2026-05-07 22:28 49.36060 -1.73481 37055 ft 447 kts 359°
2026-05-07 22:29 49.39173 -1.73356 36797 ft 447 kts 359°
2026-05-07 22:29 49.42285 -1.73234 36541 ft 447 kts 359°
2026-05-07 22:29 49.45396 -1.73117 36288 ft 447 kts 359°
2026-05-07 22:29 49.48508 -1.73001 36028 ft 447 kts 359°
2026-05-07 22:30 49.51623 -1.72879 35799 ft 447 kts 359°
2026-05-07 22:30 49.54730 -1.72753 35558 ft 446 kts 359°
2026-05-07 22:30 49.57825 -1.72566 35304 ft 445 kts
2026-05-07 22:30 49.60877 -1.71780 35061 ft 445 kts 13°
2026-05-07 22:31 49.63824 -1.70313 34826 ft 445 kts 18°
2026-05-07 22:31 49.66728 -1.68697 34587 ft 443 kts 18°
2026-05-07 22:31 49.69615 -1.67100 34293 ft 439 kts 18°
2026-05-07 22:31 49.72485 -1.65519 33739 ft 437 kts 18°
2026-05-07 22:32 49.75338 -1.63947 33244 ft 433 kts 18°
2026-05-07 22:32 49.78166 -1.62385 32750 ft 430 kts 18°
2026-05-07 22:32 49.80969 -1.60833 32266 ft 426 kts 19°
2026-05-07 22:32 49.83748 -1.59289 31779 ft 423 kts 19°
2026-05-07 22:33 49.86505 -1.57754 31311 ft 420 kts 19°
2026-05-07 22:33 49.89244 -1.56229 30845 ft 417 kts 19°
2026-05-07 22:33 49.91965 -1.54714 30391 ft 414 kts 19°
2026-05-07 22:33 49.94666 -1.53208 29910 ft 412 kts 19°
2026-05-07 22:34 49.97347 -1.51708 29484 ft 407 kts 19°
2026-05-07 22:34 50.00000 -1.50222 29043 ft 403 kts 19°
2026-05-07 22:34 50.02641 -1.48815 28632 ft 399 kts 17°
2026-05-07 22:34 50.05277 -1.47508 28224 ft 396 kts 16°
2026-05-07 22:35 50.07896 -1.46264 27818 ft 392 kts 15°
2026-05-07 22:35 50.10497 -1.45040 27409 ft 389 kts 15°
2026-05-07 22:35 50.13076 -1.43816 26999 ft 386 kts 16°
2026-05-07 22:35 50.15630 -1.42591 26577 ft 383 kts 16°
2026-05-07 22:36 50.18129 -1.41376 26167 ft 380 kts 16°
2026-05-07 22:36 50.20639 -1.40139 25741 ft 377 kts 16°
2026-05-07 22:36 50.23133 -1.38907 25321 ft 375 kts 16°
2026-05-07 22:36 50.25618 -1.37679 24853 ft 373 kts 17°
2026-05-07 22:37 50.28080 -1.36462 24418 ft 371 kts 17°
2026-05-07 22:37 50.30536 -1.35248 23974 ft 369 kts 17°
2026-05-07 22:37 50.32982 -1.34040 23494 ft 368 kts 17°
2026-05-07 22:37 50.35419 -1.32834 23023 ft 366 kts 17°
2026-05-07 22:38 50.37830 -1.31641 22593 ft 362 kts 17°
2026-05-07 22:38 50.40227 -1.30455 22159 ft 360 kts 17°
2026-05-07 22:38 50.42607 -1.29276 21740 ft 357 kts 16°
2026-05-07 22:38 50.44965 -1.28106 21319 ft 355 kts 16°
2026-05-07 22:39 50.47310 -1.26941 20902 ft 352 kts 17°
2026-05-07 22:39 50.49598 -1.25597 20489 ft 351 kts 25°
2026-05-07 22:39 50.51674 -1.23600 20081 ft 350 kts 37°
2026-05-07 22:39 50.53543 -1.21168 19672 ft 348 kts 40°
2026-05-07 22:40 50.55394 -1.18726 19262 ft 347 kts 40°
2026-05-07 22:40 50.57243 -1.16294 18857 ft 346 kts 40°
2026-05-07 22:40 50.59088 -1.13869 18452 ft 345 kts 40°
2026-05-07 22:40 50.60929 -1.11448 18023 ft 344 kts 40°
2026-05-07 22:41 50.62758 -1.09039 17624 ft 342 kts 40°
2026-05-07 22:41 50.64575 -1.06641 17245 ft 340 kts 40°
2026-05-07 22:41 50.66291 -1.04109 16850 ft 338 kts 49°
2026-05-07 22:41 50.67775 -1.01260 16479 ft 335 kts 51°
2026-05-07 22:42 50.69238 -0.98437 16209 ft 331 kts 51°
2026-05-07 22:42 50.70692 -0.95639 15837 ft 330 kts 51°
2026-05-07 22:42 50.72147 -0.92837 15452 ft 329 kts 51°
2026-05-07 22:42 50.73595 -0.90047 15082 ft 328 kts 51°
2026-05-07 22:43 50.75037 -0.87264 14747 ft 326 kts 51°
2026-05-07 22:43 50.76482 -0.84465 14253 ft 330 kts 51°
2026-05-07 22:43 50.77925 -0.81662 13754 ft 328 kts 51°
2026-05-07 22:43 50.79362 -0.78872 13212 ft 326 kts 51°
2026-05-07 22:44 50.80792 -0.76103 12683 ft 324 kts 51°
2026-05-07 22:44 50.82263 -0.73484 12153 ft 319 kts 38°
2026-05-07 22:44 50.84130 -0.71872 11587 ft 311 kts 19°
2026-05-07 22:44 50.86146 -0.70607 11008 ft 308 kts 19°
2026-05-07 22:45 50.88125 -0.69363 10448 ft 305 kts 19°
2026-05-07 22:45 50.90086 -0.68122 9839 ft 302 kts 19°
2026-05-07 22:45 50.92028 -0.66881 9132 ft 300 kts 20°
2026-05-07 22:45 50.93956 -0.65637 8470 ft 297 kts 20°
2026-05-07 22:46 50.95858 -0.64402 7829 ft 293 kts 21°
2026-05-07 22:46 50.97732 -0.63181 7186 ft 289 kts 21°
2026-05-07 22:46 50.99577 -0.61980 6579 ft 285 kts 22°
2026-05-07 22:46 51.01396 -0.60793 5923 ft 280 kts 22°
2026-05-07 22:47 51.03185 -0.59628 5278 ft 276 kts 23°
2026-05-07 22:47 51.04953 -0.58480 4631 ft 272 kts 24°
2026-05-07 22:47 51.06695 -0.57347 3930 ft 270 kts 24°
2026-05-07 22:47 51.08373 -0.56115 3497 ft 257 kts 36°
2026-05-07 22:48 51.09239 -0.54937 3383 ft 240 kts 51°
2026-05-07 22:48 51.10052 -0.52790 3290 ft 216 kts 72°
2026-05-07 22:48 51.10409 -0.50556 3207 ft 204 kts 79°
2026-05-07 22:48 51.10717 -0.48371 3108 ft 202 kts 79°
2026-05-07 22:49 51.11024 -0.46194 3019 ft 201 kts 79°
2026-05-07 22:49 51.11330 -0.44023 3008 ft 201 kts 79°
2026-05-07 22:49 51.11635 -0.41848 2900 ft 201 kts 79°
2026-05-07 22:49 51.11939 -0.39685 2672 ft 198 kts 79°
2026-05-07 22:50 51.12234 -0.37584 2417 ft 191 kts 79°
2026-05-07 22:50 51.12518 -0.35553 2183 ft 183 kts 79°
2026-05-07 22:50 51.12787 -0.33630 1922 ft 175 kts 80°
2026-05-07 22:50 51.13043 -0.31792 1683 ft 164 kts 80°
2026-05-07 22:51 51.13280 -0.30093 1460 ft 151 kts 79°
2026-05-07 22:51 51.13501 -0.28504 1262 ft 143 kts 79°
2026-05-07 22:51 51.13710 -0.27003 1058 ft 136 kts 79°
2026-05-07 22:51 51.13911 -0.25551 862 ft 134 kts 78°
2026-05-07 22:52 51.14114 -0.24110 706 ft 133 kts 77°
2026-05-07 22:52 51.14315 -0.22672 533 ft 132 kts 78°
2026-05-07 22:52 51.14512 -0.21243 336 ft 132 kts 77°
2026-05-07 22:52 51.14699 -0.19862 215 ft 120 kts 78°
2026-05-07 22:53 51.14851 -0.18765 202 ft 76 kts 77°
2026-05-07 22:53 51.14938 -0.18144 209 ft 43 kts 77°
2026-05-07 22:53 51.15037 -0.17835 210 ft 17 kts 52°
2026-05-07 22:53 51.15095 -0.17754 205 ft 11 kts 12°
2026-05-07 22:54 51.15171 -0.17766 205 ft 11 kts 353°
2026-05-07 22:54 51.15248 -0.17779 209 ft 8 kts
2026-05-07 22:54 51.15265 -0.17700 204 ft 10 kts 80°
2026-05-07 22:54 51.15281 -0.17578 204 ft 12 kts 78°
2026-05-07 22:55 51.15299 -0.17441 204 ft 13 kts 78°
2026-05-07 22:55 51.15338 -0.17364 204 ft 10 kts 351°
2026-05-07 22:55 51.15416 -0.17392 204 ft 14 kts 348°
2026-05-07 22:55 51.15513 -0.17426 204 ft 11 kts 347°
2026-05-07 22:56 51.15541 -0.17488 206 ft 8 kts 259°
2026-05-07 22:56 51.15528 -0.17588 209 ft 7 kts 261°
2026-05-07 22:56 51.15542 -0.17602 207 ft 3 kts 338°
2026-05-07 22:56 51.15568 -0.17612 210 ft 3 kts 347°
2026-05-07 22:57 51.15589 -0.17620 207 ft 3 kts 347°
2026-05-07 22:57 51.15591 -0.17620 204 ft 0 kts 347°